Location: Ar Ranvel
(48.3000°N, 4.8833°W)
Time: 19:37:05
(UTC+00:00)

ISS - Pass Details

Date: 03 October 2021
Orbit: 417 x 423 km, 51.6° (Epoch: 20 October)

Event Time Altitude Azimuth Distance (km) Brightness Sun altitude
Rises 19:54:08 0° 287° (WNW) 2,366 1.7 -20.6°
Reaches altitude 10° 19:56:34 10° 270° (W) 1,499 0.1 -20.9°
Maximum altitude 19:59:08 20° 220° (SW) 1,020 -1.6 -21.3°
Enters shadow 19:59:40 20° 207° (SSW) 1,044 -1.7 -21.4°
